Location: Street
(51.1247°N, 2.7429°W)
Time: 08:44:10
(UTC+01:00)

UWE-3 - Pass Details

Date: 03 April 2023
Orbit: 576 x 669 km, 97.7° (Epoch: 02 June)

Event Time Altitude Azimuth Distance (km) Brightness Sun altitude
Rises 03:09:16 0° 25° (NNE) 2,976 ? -28.6°
Reaches altitude 10° 03:12:02 10° 42° (NE) 2,043 ? -28.3°
Maximum altitude 03:15:21 20° 90° (E) 1,455 ? -28.0°
Enters shadow 03:16:23 19° 109° (ESE) 1,513 ? -27.9°
